[Date Prev][Date Next][Thread Prev][Thread Next] - [Date Index][Thread Index][Author Index]

2 Line ISS Keps 2-25



ISS
1 25544U 98067A   05056.19362028  .00014470  00000-0  12120-3 0  8890
2 25544  51.6472 113.7179 0004414 130.2558 328.2181 15.70243387358071
----
Via the sarex mailing list at AMSAT.ORG courtesy of AMSAT-NA.
To unsubscribe, send "unsubscribe sarex" to Majordomo@amsat.org



AMSAT Top AMSAT Home